Home > Weather > Boston > Past weeks

Flag for USA Past Weather in Boston, Massachusetts, USA — Yesterday and Last 2 Weeks

Now
78 °F

Clear.


Feels Like: 80 °F
Forecast: 76 / 89 °F
Wind: 9 mph from West

Location: Logan International Airport

Current Time: Jul 26, 2016 at 4:31:05 AM

Latest Report: Jul 26, 2016 at 3:54 AM


Visibility: 10 mi

Pressure: 29.76 "Hg

Humidity: 69%

Dew Point: 67 °F

Location of BostonLocation

Past Weather in Boston — Graph

°F

Boston Temperature Yesterday

Maximum temperature yesterday: 90 °F (at 4:54 PM)
Minimum temperature yesterday: 68 °F (at 4:54 AM)
Average temperature yesterday: 77 °F

High & Low Weather Summary for the Past Weeks

 TemperatureHumidityPressure
High97 °F (Jul 22, 3:54 PM)93% (Jul 15, 3:54 AM)30.20 "Hg (Jul 15, 3:54 AM)
Low61 °F (Jul 11, 2:59 AM)25% (Jul 21, 1:54 PM)29.70 "Hg (Jul 22, 5:54 PM)
Average78 °F59%29.96 "Hg
* Reported Jul 11 2:59 AM — Jul 26 2:54 AM, Boston, Weather by CustomWeather, © 2016

Note: Actual official high and low records may vary slightly from our data, if they occured in-between our weather recording intervals... More about our weather records

Advertising

Boston Weather History for the Previous 24 Hours

Scroll right to see more
 ConditionsComfort  
Time TempWeatherWind HumidityBarometerVisibility
2:54 AM
Tue, Jul 26
79 °FClear.14 mph69%29.75 "Hg10 mi
1:54 AM79 °FClear.12 mph72%29.75 "Hg10 mi
12:54 AM80 °FClear.9 mph69%29.75 "Hg10 mi
11:54 PM
Mon, Jul 25
80 °FPassing clouds.13 mph71%29.76 "Hg10 mi
10:54 PM80 °FOvercast.14 mph71%29.76 "Hg10 mi
9:54 PM79 °FMostly cloudy.17 mph74%29.78 "Hg10 mi
8:54 PM79 °FBroken clouds.15 mph69%29.78 "Hg10 mi
7:54 PM80 °FBroken clouds.14 mph62%29.78 "Hg10 mi
6:54 PM83 °FBroken clouds.18 mph55%29.78 "Hg10 mi
5:54 PM86 °FCloudy.17 mph51%29.76 "Hg10 mi
4:54 PM90 °FCloudy.18 mph47%29.77 "Hg10 mi
3:54 PM83 °FCloudy.5 mph63%29.80 "Hg10 mi
2:54 PM81 °FBroken clouds.8 mph67%29.83 "Hg10 mi
1:54 PM80 °FPartly sunny.10 mph69%29.85 "Hg10 mi
12:54 PM79 °FPartly sunny.12 mph69%29.87 "Hg10 mi
11:54 AM79 °FBroken clouds.12 mph62%29.90 "Hg10 mi
10:54 AM78 °FPassing clouds.10 mph58%29.90 "Hg10 mi
9:54 AM80 °FScattered clouds.7 mph54%29.91 "Hg10 mi
8:54 AM75 °FPassing clouds.3 mph64%29.94 "Hg10 mi
7:54 AM72 °FPartly sunny.5 mph68%29.95 "Hg10 mi
6:54 AM70 °FPartly sunny.5 mph81%29.95 "Hg10 mi
5:54 AM68 °FPartly cloudy.No wind84%29.94 "Hg10 mi
4:54 AM68 °FPassing clouds.No wind84%29.95 "Hg10 mi
Weather by CustomWeather, © 2016

See weather overviewHow to use our weather pages